contact:dominique.lefevre@mio.osupytheas.fr, maurice.libes@osupytheas.fr, didier.mallarino@osupytheas.fr
Project:EMSO http://www.emso-fr.org/EMSO-France
Depth: 2436.0 m
Title:EMSO Ligure Ouest : Data MII capteur MICROCAT
DateTime_Computer,Latitude,Longitude,Temperature,Conductivity,Pressure,DateTime_Instrument
DateTime_Computer,Latitude,Longitude,degC,S m-1,dbar,DateTime_Instrument
2021-12-31T00:01:34Z,42.805,6.029,13.2995,4.60018,2469.853,2021-12-31T02:03:04Z
2021-12-31T00:04:37Z,42.805,6.029,13.2996,4.60019,2469.844,2021-12-31T02:06:07Z
2021-12-31T00:07:41Z,42.805,6.029,13.2998,4.60019,2469.83,2021-12-31T02:09:10Z
2021-12-31T00:10:44Z,42.805,6.029,13.2998,4.60019,2469.853,2021-12-31T02:12:13Z
2021-12-31T00:13:47Z,42.805,6.029,13.2995,4.60019,2469.821,2021-12-31T02:15:17Z
2021-12-31T00:16:50Z,42.805,6.029,13.2994,4.60018,2469.806,2021-12-31T02:18:20Z
2021-12-31T00:19:53Z,42.805,6.029,13.2993,4.60019,2469.844,2021-12-31T02:21:23Z
2021-12-31T00:22:56Z,42.805,6.029,13.3000,4.60019,2469.853,2021-12-31T02:24:26Z
2021-12-31T00:25:59Z,42.805,6.029,13.2996,4.60019,2469.83,2021-12-31T02:27:29Z
2021-12-31T00:29:02Z,42.805,6.029,13.2999,4.60019,2469.853,2021-12-31T02:30:32Z
2021-12-31T00:32:06Z,42.805,6.029,13.2995,4.60021,2469.853,2021-12-31T02:33:35Z
2021-12-31T00:35:09Z,42.805,6.029,13.2996,4.60018,2469.853,2021-12-31T02:36:39Z
2021-12-31T00:38:12Z,42.805,6.029,13.2994,4.60019,2469.867,2021-12-31T02:39:42Z
2021-12-31T00:41:15Z,42.805,6.029,13.2997,4.60019,2469.853,2021-12-31T02:42:45Z
2021-12-31T00:44:18Z,42.805,6.029,13.2993,4.60017,2469.853,2021-12-31T02:45:48Z
2021-12-31T00:47:21Z,42.805,6.029,13.2996,4.60017,2469.89,2021-12-31T02:48:51Z
2021-12-31T00:50:24Z,42.805,6.029,13.2997,4.60019,2469.876,2021-12-31T02:51:54Z
2021-12-31T00:53:27Z,42.805,6.029,13.2998,4.60019,2469.89,2021-12-31T02:54:57Z
2021-12-31T00:56:31Z,42.805,6.029,13.2995,4.60017,2469.876,2021-12-31T02:58:00Z
2021-12-31T00:59:34Z,42.805,6.029,13.2992,4.60019,2469.914,2021-12-31T03:01:03Z
2021-12-31T01:02:37Z,42.805,6.029,13.2996,4.60019,2469.914,2021-12-31T03:04:07Z
2021-12-31T01:05:40Z,42.805,6.029,13.2993,4.60018,2469.876,2021-12-31T03:07:10Z
2021-12-31T01:08:43Z,42.805,6.029,13.2996,4.60019,2469.9,2021-12-31T03:10:13Z
2021-12-31T01:11:46Z,42.805,6.029,13.2996,4.60018,2469.9,2021-12-31T03:13:16Z
2021-12-31T01:14:49Z,42.805,6.029,13.2998,4.60018,2469.914,2021-12-31T03:16:19Z
2021-12-31T01:17:52Z,42.805,6.029,13.2998,4.60021,2469.914,2021-12-31T03:19:22Z
2021-12-31T01:20:56Z,42.805,6.029,13.2996,4.60017,2469.89,2021-12-31T03:22:25Z
2021-12-31T01:23:59Z,42.805,6.029,13.2998,4.60020,2469.923,2021-12-31T03:25:28Z
2021-12-31T01:27:02Z,42.805,6.029,13.3000,4.60020,2469.923,2021-12-31T03:28:32Z
2021-12-31T01:30:05Z,42.805,6.029,13.2996,4.60019,2469.923,2021-12-31T03:31:35Z
2021-12-31T01:33:08Z,42.805,6.029,13.2995,4.60019,2469.937,2021-12-31T03:34:38Z
2021-12-31T01:36:11Z,42.805,6.029,13.2999,4.60019,2469.937,2021-12-31T03:37:41Z
2021-12-31T01:39:14Z,42.805,6.029,13.2999,4.60019,2469.96,2021-12-31T03:40:44Z
2021-12-31T01:42:17Z,42.805,6.029,13.2993,4.60019,2469.937,2021-12-31T03:43:47Z
2021-12-31T01:45:21Z,42.805,6.029,13.2996,4.60019,2469.96,2021-12-31T03:46:50Z
2021-12-31T01:48:24Z,42.805,6.029,13.2995,4.60020,2469.923,2021-12-31T03:49:53Z
2021-12-31T01:51:27Z,42.805,6.029,13.2998,4.60019,2469.947,2021-12-31T03:52:57Z
2021-12-31T01:54:30Z,42.805,6.029,13.2996,4.60019,2469.923,2021-12-31T03:56:00Z
2021-12-31T01:57:33Z,42.805,6.029,13.2996,4.60019,2469.947,2021-12-31T03:59:03Z
2021-12-31T02:00:36Z,42.805,6.029,13.2994,4.60021,2469.97,2021-12-31T04:02:06Z
2021-12-31T02:03:39Z,42.805,6.029,13.2998,4.60019,2469.947,2021-12-31T04:05:09Z
2021-12-31T02:06:42Z,42.805,6.029,13.2996,4.60019,2469.97,2021-12-31T04:08:12Z
2021-12-31T02:09:46Z,42.805,6.029,13.2998,4.60019,2469.947,2021-12-31T04:11:15Z
2021-12-31T02:12:49Z,42.805,6.029,13.2998,4.60019,2469.993,2021-12-31T04:14:18Z
2021-12-31T02:15:52Z,42.805,6.029,13.2995,4.60019,2470.007,2021-12-31T04:17:22Z
2021-12-31T02:18:55Z,42.805,6.029,13.2996,4.60019,2469.979,2021-12-31T04:20:25Z
2021-12-31T02:21:58Z,42.805,6.029,13.3000,4.60019,2469.984,2021-12-31T04:23:28Z
2021-12-31T02:25:01Z,42.805,6.029,13.2996,4.60019,2469.993,2021-12-31T04:26:31Z
2021-12-31T02:28:04Z,42.805,6.029,13.2997,4.60019,2469.993,2021-12-31T04:29:34Z
2021-12-31T02:31:07Z,42.805,6.029,13.2996,4.60019,2469.993,2021-12-31T04:32:37Z
2021-12-31T02:34:11Z,42.805,6.029,13.2997,4.60020,2470.03,2021-12-31T04:35:40Z
2021-12-31T02:37:14Z,42.805,6.029,13.2996,4.60020,2469.993,2021-12-31T04:38:43Z
2021-12-31T02:40:17Z,42.805,6.029,13.2996,4.60020,2470.03,2021-12-31T04:41:47Z
2021-12-31T02:43:20Z,42.805,6.029,13.2996,4.60020,2470.017,2021-12-31T04:44:50Z
2021-12-31T02:46:23Z,42.805,6.029,13.2999,4.60020,2469.993,2021-12-31T04:47:53Z
2021-12-31T02:49:26Z,42.805,6.029,13.2996,4.60019,2470.017,2021-12-31T04:50:56Z
2021-12-31T02:52:29Z,42.805,6.029,13.2993,4.60024,2470.04,2021-12-31T04:53:59Z
2021-12-31T02:55:32Z,42.805,6.029,13.3001,4.60019,2470.04,2021-12-31T04:57:02Z
2021-12-31T02:58:36Z,42.805,6.029,13.2996,4.60020,2470.017,2021-12-31T05:00:05Z
2021-12-31T03:01:39Z,42.805,6.029,13.2997,4.60020,2470.053,2021-12-31T05:03:08Z
2021-12-31T03:04:42Z,42.805,6.029,13.2994,4.60021,2470.077,2021-12-31T05:06:12Z
2021-12-31T03:07:45Z,42.805,6.029,13.2997,4.60020,2470.04,2021-12-31T05:09:15Z
2021-12-31T03:10:48Z,42.805,6.029,13.2998,4.60020,2470.03,2021-12-31T05:12:18Z
2021-12-31T03:13:51Z,42.805,6.029,13.2996,4.60019,2470.063,2021-12-31T05:15:21Z
2021-12-31T03:16:54Z,42.805,6.029,13.2996,4.60019,2470.04,2021-12-31T05:18:24Z
2021-12-31T03:19:57Z,42.805,6.029,13.2998,4.60020,2470.063,2021-12-31T05:21:27Z
2021-12-31T03:23:01Z,42.805,6.029,13.2993,4.60019,2470.04,2021-12-31T05:24:30Z
2021-12-31T03:26:04Z,42.805,6.029,13.2993,4.60019,2470.063,2021-12-31T05:27:33Z
2021-12-31T03:29:07Z,42.805,6.029,13.2996,4.60021,2470.063,2021-12-31T05:30:37Z
2021-12-31T03:32:10Z,42.805,6.029,13.2996,4.60019,2470.053,2021-12-31T05:33:40Z
2021-12-31T03:35:13Z,42.805,6.029,13.2998,4.60019,2470.1,2021-12-31T05:36:43Z
2021-12-31T03:38:16Z,42.805,6.029,13.2993,4.60019,2470.063,2021-12-31T05:39:46Z
2021-12-31T03:41:19Z,42.805,6.029,13.2998,4.60019,2470.11,2021-12-31T05:42:49Z
2021-12-31T03:44:22Z,42.805,6.029,13.2996,4.60019,2470.077,2021-12-31T05:45:52Z
2021-12-31T03:47:26Z,42.805,6.029,13.2995,4.60019,2470.087,2021-12-31T05:48:55Z
2021-12-31T03:50:29Z,42.805,6.029,13.2996,4.60020,2470.1,2021-12-31T05:51:58Z
2021-12-31T03:53:32Z,42.805,6.029,13.2998,4.60021,2470.124,2021-12-31T05:55:02Z
2021-12-31T03:56:35Z,42.805,6.029,13.2995,4.60019,2470.11,2021-12-31T05:58:05Z
2021-12-31T03:59:38Z,42.805,6.029,13.2996,4.60020,2470.11,2021-12-31T06:01:08Z
2021-12-31T04:02:41Z,42.805,6.029,13.2997,4.60019,2470.133,2021-12-31T06:04:11Z
2021-12-31T04:05:44Z,42.805,6.029,13.2996,4.60019,2470.124,2021-12-31T06:07:14Z
2021-12-31T04:08:47Z,42.805,6.029,13.2998,4.60019,2470.11,2021-12-31T06:10:17Z
2021-12-31T04:11:50Z,42.805,6.029,13.2996,4.60019,2470.11,2021-12-31T06:13:20Z
2021-12-31T04:14:54Z,42.805,6.029,13.2995,4.60021,2470.147,2021-12-31T06:16:23Z
2021-12-31T04:17:57Z,42.805,6.029,13.2999,4.60019,2470.133,2021-12-31T06:19:27Z
2021-12-31T04:21:00Z,42.805,6.029,13.2995,4.60019,2470.147,2021-12-31T06:22:30Z
2021-12-31T04:24:03Z,42.805,6.029,13.2997,4.60020,2470.11,2021-12-31T06:25:33Z
2021-12-31T04:27:06Z,42.805,6.029,13.2999,4.60020,2470.147,2021-12-31T06:28:36Z
2021-12-31T04:30:09Z,42.805,6.029,13.2996,4.60019,2470.133,2021-12-31T06:31:39Z
2021-12-31T04:33:12Z,42.805,6.029,13.2997,4.60019,2470.133,2021-12-31T06:34:42Z
2021-12-31T04:36:15Z,42.805,6.029,13.2996,4.60020,2470.171,2021-12-31T06:37:45Z
2021-12-31T04:39:19Z,42.805,6.029,13.2994,4.60021,2470.171,2021-12-31T06:40:48Z
2021-12-31T04:42:22Z,42.805,6.029,13.2996,4.60021,2470.133,2021-12-31T06:43:52Z
2021-12-31T04:45:25Z,42.805,6.029,13.2996,4.60021,2470.156,2021-12-31T06:46:55Z
2021-12-31T04:48:28Z,42.805,6.029,13.2997,4.60020,2470.156,2021-12-31T06:49:58Z
2021-12-31T04:51:31Z,42.805,6.029,13.2999,4.60019,2470.156,2021-12-31T06:53:01Z
2021-12-31T04:54:34Z,42.805,6.029,13.2998,4.60019,2470.156,2021-12-31T06:56:04Z
2021-12-31T04:57:37Z,42.805,6.029,13.2999,4.60020,2470.156,2021-12-31T06:59:07Z
2021-12-31T05:00:40Z,42.805,6.029,13.2996,4.60019,2470.171,2021-12-31T07:02:10Z
2021-12-31T05:03:44Z,42.805,6.029,13.2997,4.60019,2470.18,2021-12-31T07:05:13Z
2021-12-31T05:06:47Z,42.805,6.029,13.2993,4.60020,2470.156,2021-12-31T07:08:17Z
2021-12-31T05:09:50Z,42.805,6.029,13.2994,4.60020,2470.156,2021-12-31T07:11:20Z
2021-12-31T05:12:53Z,42.805,6.029,13.2993,4.60021,2470.194,2021-12-31T07:14:23Z
2021-12-31T05:15:56Z,42.805,6.029,13.2995,4.60019,2470.18,2021-12-31T07:17:26Z
2021-12-31T05:18:59Z,42.805,6.029,13.3000,4.60020,2470.156,2021-12-31T07:20:29Z
2021-12-31T05:22:02Z,42.805,6.029,13.3000,4.60020,2470.18,2021-12-31T07:23:32Z
2021-12-31T05:25:05Z,42.805,6.029,13.2998,4.60021,2470.147,2021-12-31T07:26:35Z
2021-12-31T05:28:09Z,42.805,6.029,13.2998,4.60020,2470.194,2021-12-31T07:29:38Z
2021-12-31T05:31:12Z,42.805,6.029,13.2998,4.60022,2470.171,2021-12-31T07:32:41Z
2021-12-31T05:34:15Z,42.805,6.029,13.2997,4.60024,2470.147,2021-12-31T07:35:45Z
2021-12-31T05:37:18Z,42.805,6.029,13.2998,4.60026,2470.171,2021-12-31T07:38:48Z
2021-12-31T05:40:21Z,42.805,6.029,13.2996,4.60019,2470.171,2021-12-31T07:41:51Z
2021-12-31T05:43:24Z,42.805,6.029,13.3000,4.60020,2470.194,2021-12-31T07:44:54Z
2021-12-31T05:46:27Z,42.805,6.029,13.2998,4.60020,2470.194,2021-12-31T07:47:57Z
2021-12-31T05:49:30Z,42.805,6.029,13.2997,4.60020,2470.156,2021-12-31T07:51:00Z
2021-12-31T05:52:34Z,42.805,6.029,13.2999,4.60019,2470.194,2021-12-31T07:54:03Z
2021-12-31T05:55:37Z,42.805,6.029,13.2994,4.60019,2470.18,2021-12-31T07:57:06Z
2021-12-31T05:58:40Z,42.805,6.029,13.2996,4.60019,2470.18,2021-12-31T08:00:10Z
2021-12-31T06:01:43Z,42.805,6.029,13.2999,4.60019,2470.18,2021-12-31T08:03:13Z
2021-12-31T06:04:46Z,42.805,6.029,13.2997,4.60021,2470.217,2021-12-31T08:06:16Z
2021-12-31T06:07:49Z,42.805,6.029,13.2998,4.60019,2470.18,2021-12-31T08:09:19Z
2021-12-31T06:10:52Z,42.805,6.029,13.2998,4.60019,2470.18,2021-12-31T08:12:22Z
2021-12-31T06:13:55Z,42.805,6.029,13.2993,4.60019,2470.203,2021-12-31T08:15:25Z
2021-12-31T06:16:59Z,42.805,6.029,13.2996,4.60019,2470.171,2021-12-31T08:18:28Z
2021-12-31T06:20:02Z,42.805,6.029,13.2998,4.60019,2470.18,2021-12-31T08:21:31Z
2021-12-31T06:23:05Z,42.805,6.029,13.2996,4.60021,2470.18,2021-12-31T08:24:35Z
2021-12-31T06:26:08Z,42.805,6.029,13.2999,4.60021,2470.156,2021-12-31T08:27:38Z
2021-12-31T06:29:11Z,42.805,6.029,13.2995,4.60020,2470.18,2021-12-31T08:30:41Z
2021-12-31T06:32:14Z,42.805,6.029,13.2997,4.60019,2470.194,2021-12-31T08:33:44Z
2021-12-31T06:35:17Z,42.805,6.029,13.2996,4.60020,2470.203,2021-12-31T08:36:47Z
2021-12-31T06:38:20Z,42.805,6.029,13.2994,4.60020,2470.18,2021-12-31T08:39:50Z
2021-12-31T06:41:24Z,42.805,6.029,13.2993,4.60024,2470.203,2021-12-31T08:42:53Z
2021-12-31T06:44:27Z,42.805,6.029,13.2996,4.60020,2470.194,2021-12-31T08:45:56Z
2021-12-31T06:47:30Z,42.805,6.029,13.3000,4.60021,2470.18,2021-12-31T08:49:00Z
2021-12-31T06:50:33Z,42.805,6.029,13.2997,4.60020,2470.24,2021-12-31T08:52:03Z
2021-12-31T06:53:36Z,42.805,6.029,13.2994,4.60019,2470.203,2021-12-31T08:55:06Z
2021-12-31T06:56:39Z,42.805,6.029,13.2993,4.60019,2470.143,2021-12-31T08:58:09Z
2021-12-31T06:59:42Z,42.805,6.029,13.2994,4.60022,2470.203,2021-12-31T09:01:12Z
2021-12-31T07:02:45Z,42.805,6.029,13.2998,4.60019,2470.18,2021-12-31T09:04:15Z
2021-12-31T07:05:49Z,42.805,6.029,13.2997,4.60020,2470.203,2021-12-31T09:07:18Z
2021-12-31T07:08:52Z,42.805,6.029,13.2998,4.60019,2470.227,2021-12-31T09:10:21Z
2021-12-31T07:11:55Z,42.805,6.029,13.2999,4.60019,2470.227,2021-12-31T09:13:25Z
2021-12-31T07:14:58Z,42.805,6.029,13.2997,4.60020,2470.203,2021-12-31T09:16:28Z
2021-12-31T07:18:01Z,42.805,6.029,13.2993,4.60021,2470.194,2021-12-31T09:19:31Z
2021-12-31T07:21:04Z,42.805,6.029,13.2996,4.60020,2470.18,2021-12-31T09:22:34Z
2021-12-31T07:24:07Z,42.805,6.029,13.2999,4.60019,2470.203,2021-12-31T09:25:37Z
2021-12-31T07:27:10Z,42.805,6.029,13.2996,4.60021,2470.194,2021-12-31T09:28:40Z
2021-12-31T07:30:14Z,42.805,6.029,13.2996,4.60021,2470.194,2021-12-31T09:31:43Z
2021-12-31T07:33:17Z,42.805,6.029,13.2997,4.60020,2470.18,2021-12-31T09:34:46Z
2021-12-31T07:36:20Z,42.805,6.029,13.2997,4.60021,2470.194,2021-12-31T09:37:50Z
2021-12-31T07:39:23Z,42.805,6.029,13.2994,4.60020,2470.171,2021-12-31T09:40:53Z
2021-12-31T07:42:26Z,42.805,6.029,13.2998,4.60022,2470.194,2021-12-31T09:43:56Z
2021-12-31T07:45:29Z,42.805,6.029,13.2996,4.60019,2470.203,2021-12-31T09:46:59Z
2021-12-31T07:48:32Z,42.805,6.029,13.2993,4.60020,2470.18,2021-12-31T09:50:02Z
2021-12-31T07:51:35Z,42.805,6.029,13.2996,4.60021,2470.156,2021-12-31T09:53:05Z
2021-12-31T07:54:39Z,42.805,6.029,13.2996,4.60026,2470.194,2021-12-31T09:56:08Z
2021-12-31T07:57:42Z,42.805,6.029,13.2998,4.60019,2470.194,2021-12-31T09:59:11Z
2021-12-31T08:00:45Z,42.805,6.029,13.3000,4.60020,2470.194,2021-12-31T10:02:15Z
2021-12-31T08:03:48Z,42.805,6.029,13.2996,4.60022,2470.18,2021-12-31T10:05:18Z
2021-12-31T08:06:51Z,42.805,6.029,13.2996,4.60020,2470.194,2021-12-31T10:08:21Z
2021-12-31T08:09:54Z,42.805,6.029,13.2997,4.60019,2470.18,2021-12-31T10:11:24Z
2021-12-31T08:12:57Z,42.805,6.029,13.2997,4.60020,2470.171,2021-12-31T10:14:27Z
2021-12-31T08:16:00Z,42.805,6.029,13.2996,4.60020,2470.194,2021-12-31T10:17:30Z
2021-12-31T08:19:04Z,42.805,6.029,13.2996,4.60019,2470.18,2021-12-31T10:20:33Z
2021-12-31T08:22:07Z,42.805,6.029,13.2998,4.60020,2470.203,2021-12-31T10:23:36Z
2021-12-31T08:25:10Z,42.805,6.029,13.2998,4.60019,2470.203,2021-12-31T10:26:40Z
2021-12-31T08:28:13Z,42.805,6.029,13.2998,4.60019,2470.217,2021-12-31T10:29:43Z
2021-12-31T08:31:16Z,42.805,6.029,13.2993,4.60021,2470.18,2021-12-31T10:32:46Z
2021-12-31T08:34:19Z,42.805,6.029,13.2997,4.60019,2470.156,2021-12-31T10:35:49Z
2021-12-31T08:37:22Z,42.805,6.029,13.2994,4.60019,2470.194,2021-12-31T10:38:52Z
2021-12-31T08:40:25Z,42.805,6.029,13.2993,4.60019,2470.18,2021-12-31T10:41:55Z
2021-12-31T08:43:29Z,42.805,6.029,13.2998,4.60020,2470.194,2021-12-31T10:44:58Z
2021-12-31T08:46:32Z,42.805,6.029,13.2996,4.60021,2470.203,2021-12-31T10:48:01Z
2021-12-31T08:49:35Z,42.805,6.029,13.2993,4.60019,2470.203,2021-12-31T10:51:05Z
2021-12-31T08:52:38Z,42.805,6.029,13.2994,4.60019,2470.24,2021-12-31T10:54:08Z
2021-12-31T08:55:41Z,42.805,6.029,13.2998,4.60021,2470.18,2021-12-31T10:57:11Z
2021-12-31T08:58:44Z,42.805,6.029,13.2993,4.60020,2470.217,2021-12-31T11:00:14Z
2021-12-31T09:01:47Z,42.805,6.029,13.2999,4.60020,2470.203,2021-12-31T11:03:17Z
2021-12-31T09:04:50Z,42.805,6.029,13.2995,4.60020,2470.18,2021-12-31T11:06:20Z
2021-12-31T09:07:54Z,42.805,6.029,13.3000,4.60021,2470.18,2021-12-31T11:09:23Z
2021-12-31T09:10:57Z,42.805,6.029,13.3000,4.60021,2470.171,2021-12-31T11:12:26Z
2021-12-31T09:14:00Z,42.805,6.029,13.2998,4.60019,2470.133,2021-12-31T11:15:30Z
2021-12-31T09:17:03Z,42.805,6.029,13.2993,4.60021,2470.171,2021-12-31T11:18:33Z
2021-12-31T09:20:06Z,42.805,6.029,13.2996,4.60019,2470.203,2021-12-31T11:21:36Z
2021-12-31T09:23:09Z,42.805,6.029,13.2998,4.60019,2470.18,2021-12-31T11:24:39Z
2021-12-31T09:26:12Z,42.805,6.029,13.2996,4.60019,2470.194,2021-12-31T11:27:42Z
2021-12-31T09:29:15Z,42.805,6.029,13.2995,4.60019,2470.156,2021-12-31T11:30:45Z
2021-12-31T09:32:19Z,42.805,6.029,13.2995,4.60019,2470.18,2021-12-31T11:33:48Z
2021-12-31T09:35:22Z,42.805,6.029,13.3000,4.60020,2470.217,2021-12-31T11:36:52Z
2021-12-31T09:38:25Z,42.805,6.029,13.2997,4.60020,2470.203,2021-12-31T11:39:55Z
2021-12-31T09:41:28Z,42.805,6.029,13.2997,4.60019,2470.203,2021-12-31T11:42:58Z
2021-12-31T09:44:31Z,42.805,6.029,13.2996,4.60019,2470.156,2021-12-31T11:46:01Z
2021-12-31T09:47:34Z,42.805,6.029,13.2997,4.60019,2470.227,2021-12-31T11:49:04Z
2021-12-31T09:50:37Z,42.805,6.029,13.2997,4.60020,2470.18,2021-12-31T11:52:07Z
2021-12-31T09:53:41Z,42.805,6.029,13.3000,4.60020,2470.203,2021-12-31T11:55:10Z
2021-12-31T09:56:44Z,42.805,6.029,13.2996,4.60021,2470.18,2021-12-31T11:58:13Z
2021-12-31T09:59:47Z,42.805,6.029,13.2999,4.60021,2470.203,2021-12-31T12:01:17Z
2021-12-31T10:02:50Z,42.805,6.029,13.2993,4.60019,2470.171,2021-12-31T12:04:20Z
2021-12-31T10:05:53Z,42.805,6.029,13.2996,4.60019,2470.217,2021-12-31T12:07:23Z
2021-12-31T10:08:56Z,42.805,6.029,13.3000,4.60019,2470.18,2021-12-31T12:10:26Z
2021-12-31T10:11:59Z,42.805,6.029,13.2996,4.60021,2470.156,2021-12-31T12:13:29Z
2021-12-31T10:15:02Z,42.805,6.029,13.2996,4.60021,2470.18,2021-12-31T12:16:32Z
2021-12-31T10:18:06Z,42.805,6.029,13.2995,4.60019,2470.217,2021-12-31T12:19:35Z
2021-12-31T10:21:09Z,42.805,6.029,13.2996,4.60019,2470.194,2021-12-31T12:22:38Z
2021-12-31T10:24:12Z,42.805,6.029,13.2994,4.60019,2470.156,2021-12-31T12:25:42Z
2021-12-31T10:27:15Z,42.805,6.029,13.2996,4.60019,2470.18,2021-12-31T12:28:45Z
2021-12-31T10:30:18Z,42.805,6.029,13.2996,4.60019,2470.203,2021-12-31T12:31:48Z
2021-12-31T10:33:21Z,42.805,6.029,13.2994,4.60020,2470.194,2021-12-31T12:34:51Z
2021-12-31T10:36:24Z,42.805,6.029,13.2998,4.60019,2470.203,2021-12-31T12:37:54Z
2021-12-31T10:39:27Z,42.805,6.029,13.2998,4.60020,2470.18,2021-12-31T12:40:57Z
2021-12-31T10:42:31Z,42.805,6.029,13.2998,4.60020,2470.18,2021-12-31T12:44:00Z
2021-12-31T10:45:34Z,42.805,6.029,13.2996,4.60020,2470.171,2021-12-31T12:47:03Z
2021-12-31T10:48:37Z,42.805,6.029,13.2996,4.60019,2470.18,2021-12-31T12:50:07Z
2021-12-31T10:51:40Z,42.805,6.029,13.2999,4.60021,2470.156,2021-12-31T12:53:10Z
2021-12-31T10:54:43Z,42.805,6.029,13.2995,4.60019,2470.194,2021-12-31T12:56:13Z
2021-12-31T10:57:46Z,42.805,6.029,13.2999,4.60021,2470.156,2021-12-31T12:59:16Z
2021-12-31T11:00:49Z,42.805,6.029,13.2996,4.60019,2470.171,2021-12-31T13:02:19Z
2021-12-31T11:03:52Z,42.805,6.029,13.2994,4.60020,2470.18,2021-12-31T13:05:22Z
2021-12-31T11:06:56Z,42.805,6.029,13.3002,4.60019,2470.171,2021-12-31T13:08:25Z
2021-12-31T11:09:59Z,42.805,6.029,13.2996,4.60021,2470.194,2021-12-31T13:11:28Z
2021-12-31T11:13:02Z,42.805,6.029,13.2998,4.60020,2470.18,2021-12-31T13:14:32Z
2021-12-31T11:16:05Z,42.805,6.029,13.2995,4.60019,2470.194,2021-12-31T13:17:35Z
2021-12-31T11:19:08Z,42.805,6.029,13.2995,4.60023,2470.156,2021-12-31T13:20:38Z
2021-12-31T11:22:11Z,42.805,6.029,13.2996,4.60020,2470.18,2021-12-31T13:23:41Z
2021-12-31T11:25:14Z,42.805,6.029,13.2998,4.60019,2470.18,2021-12-31T13:26:44Z
2021-12-31T11:28:17Z,42.805,6.029,13.2996,4.60026,2470.203,2021-12-31T13:29:47Z
2021-12-31T11:31:21Z,42.805,6.029,13.2994,4.60020,2470.217,2021-12-31T13:32:50Z
2021-12-31T11:34:24Z,42.805,6.029,13.2998,4.60021,2470.194,2021-12-31T13:35:54Z
2021-12-31T11:37:27Z,42.805,6.029,13.2993,4.60019,2470.156,2021-12-31T13:38:57Z
2021-12-31T11:40:30Z,42.805,6.029,13.2997,4.60020,2470.203,2021-12-31T13:42:00Z
2021-12-31T11:43:33Z,42.805,6.029,13.3000,4.60019,2470.18,2021-12-31T13:45:03Z
2021-12-31T11:46:36Z,42.805,6.029,13.2994,4.60019,2470.156,2021-12-31T13:48:06Z
2021-12-31T11:49:39Z,42.805,6.029,13.2996,4.60019,2470.203,2021-12-31T13:51:09Z
2021-12-31T11:52:42Z,42.805,6.029,13.2997,4.60022,2470.156,2021-12-31T13:54:12Z
2021-12-31T11:55:46Z,42.805,6.029,13.2996,4.60019,2470.18,2021-12-31T13:57:15Z
2021-12-31T11:58:49Z,42.805,6.029,13.2997,4.60019,2470.18,2021-12-31T14:00:19Z
2021-12-31T12:01:52Z,42.805,6.029,13.2996,4.60019,2470.171,2021-12-31T14:03:22Z
2021-12-31T12:04:55Z,42.805,6.029,13.2996,4.60019,2470.18,2021-12-31T14:06:25Z
2021-12-31T12:07:58Z,42.805,6.029,13.2999,4.60019,2470.18,2021-12-31T14:09:28Z
2021-12-31T12:11:01Z,42.805,6.029,13.2998,4.60019,2470.194,2021-12-31T14:12:31Z
2021-12-31T12:14:04Z,42.805,6.029,13.2993,4.60019,2470.18,2021-12-31T14:15:34Z
2021-12-31T12:17:08Z,42.805,6.029,13.2997,4.60020,2470.203,2021-12-31T14:18:37Z
2021-12-31T12:20:11Z,42.805,6.029,13.2996,4.60019,2470.18,2021-12-31T14:21:40Z
2021-12-31T12:23:14Z,42.805,6.029,13.2995,4.60019,2470.217,2021-12-31T14:24:44Z
2021-12-31T12:26:17Z,42.805,6.029,13.2994,4.60019,2470.18,2021-12-31T14:27:47Z
2021-12-31T12:29:20Z,42.805,6.029,13.2996,4.60019,2470.18,2021-12-31T14:30:50Z
2021-12-31T12:32:23Z,42.805,6.029,13.3000,4.60019,2470.217,2021-12-31T14:33:53Z
2021-12-31T12:35:26Z,42.805,6.029,13.2994,4.60019,2470.227,2021-12-31T14:36:56Z
2021-12-31T12:38:29Z,42.805,6.029,13.2998,4.60020,2470.227,2021-12-31T14:39:59Z
2021-12-31T12:41:33Z,42.805,6.029,13.2997,4.60021,2470.227,2021-12-31T14:43:02Z
2021-12-31T12:44:36Z,42.805,6.029,13.2998,4.60019,2470.217,2021-12-31T14:46:05Z
2021-12-31T12:47:39Z,42.805,6.029,13.2998,4.60019,2470.217,2021-12-31T14:49:09Z
2021-12-31T12:50:42Z,42.805,6.029,13.2996,4.60019,2470.203,2021-12-31T14:52:12Z
2021-12-31T12:53:45Z,42.805,6.029,13.2998,4.60019,2470.18,2021-12-31T14:55:15Z
2021-12-31T12:56:48Z,42.805,6.029,13.2996,4.60019,2470.18,2021-12-31T14:58:18Z
2021-12-31T12:59:51Z,42.805,6.029,13.2996,4.60019,2470.217,2021-12-31T15:01:21Z
2021-12-31T13:02:54Z,42.805,6.029,13.2996,4.60019,2470.203,2021-12-31T15:04:24Z
2021-12-31T13:05:58Z,42.805,6.029,13.2998,4.60019,2470.217,2021-12-31T15:07:27Z
2021-12-31T13:09:01Z,42.805,6.029,13.2993,4.60019,2470.217,2021-12-31T15:10:30Z
2021-12-31T13:12:04Z,42.805,6.029,13.2998,4.60019,2470.227,2021-12-31T15:13:34Z
2021-12-31T13:15:07Z,42.805,6.029,13.2997,4.60020,2470.18,2021-12-31T15:16:37Z
2021-12-31T13:18:10Z,42.805,6.029,13.2996,4.60019,2470.227,2021-12-31T15:19:40Z
2021-12-31T13:21:13Z,42.805,6.029,13.2997,4.60018,2470.194,2021-12-31T15:22:43Z
2021-12-31T13:24:16Z,42.805,6.029,13.2993,4.60019,2470.227,2021-12-31T15:25:46Z
2021-12-31T13:27:19Z,42.805,6.029,13.2997,4.60019,2470.227,2021-12-31T15:28:49Z
2021-12-31T13:30:23Z,42.805,6.029,13.2996,4.60019,2470.24,2021-12-31T15:31:52Z
2021-12-31T13:33:26Z,42.805,6.029,13.2999,4.60019,2470.227,2021-12-31T15:34:56Z
2021-12-31T13:36:29Z,42.805,6.029,13.2992,4.60019,2470.203,2021-12-31T15:37:59Z
2021-12-31T13:39:32Z,42.805,6.029,13.2999,4.60021,2470.227,2021-12-31T15:41:02Z
2021-12-31T13:42:35Z,42.805,6.029,13.2994,4.60019,2470.203,2021-12-31T15:44:05Z
2021-12-31T13:45:38Z,42.805,6.029,13.2998,4.60020,2470.203,2021-12-31T15:47:08Z
2021-12-31T13:48:41Z,42.805,6.029,13.2996,4.60019,2470.227,2021-12-31T15:50:11Z
2021-12-31T13:51:45Z,42.805,6.029,13.2996,4.60020,2470.227,2021-12-31T15:53:14Z
2021-12-31T13:54:48Z,42.805,6.029,13.3000,4.60020,2470.264,2021-12-31T15:56:17Z
2021-12-31T13:57:51Z,42.805,6.029,13.2996,4.60020,2470.24,2021-12-31T15:59:21Z
2021-12-31T14:00:54Z,42.805,6.029,13.2996,4.60019,2470.264,2021-12-31T16:02:24Z
2021-12-31T14:03:57Z,42.805,6.029,13.2998,4.60019,2470.264,2021-12-31T16:05:27Z
2021-12-31T14:07:00Z,42.805,6.029,13.3000,4.60021,2470.264,2021-12-31T16:08:30Z
2021-12-31T14:10:03Z,42.805,6.029,13.2996,4.60020,2470.273,2021-12-31T16:11:33Z
2021-12-31T14:13:06Z,42.805,6.029,13.2994,4.60021,2470.25,2021-12-31T16:14:36Z
2021-12-31T14:16:10Z,42.805,6.029,13.2997,4.60019,2470.273,2021-12-31T16:17:39Z
2021-12-31T14:19:13Z,42.805,6.029,13.2995,4.60019,2470.25,2021-12-31T16:20:42Z
2021-12-31T14:22:16Z,42.805,6.029,13.2998,4.60023,2470.236,2021-12-31T16:23:46Z
2021-12-31T14:25:19Z,42.805,6.029,13.2996,4.60019,2470.25,2021-12-31T16:26:49Z
2021-12-31T14:28:22Z,42.805,6.029,13.2996,4.60023,2470.264,2021-12-31T16:29:52Z
2021-12-31T14:31:25Z,42.805,6.029,13.3000,4.60020,2470.273,2021-12-31T16:32:55Z
2021-12-31T14:34:28Z,42.805,6.029,13.2996,4.60021,2470.273,2021-12-31T16:35:58Z
2021-12-31T14:37:31Z,42.805,6.029,13.2993,4.60019,2470.297,2021-12-31T16:39:01Z
2021-12-31T14:40:35Z,42.805,6.029,13.2997,4.60019,2470.273,2021-12-31T16:42:04Z
2021-12-31T14:43:38Z,42.805,6.029,13.2997,4.60019,2470.31,2021-12-31T16:45:08Z
2021-12-31T14:46:41Z,42.805,6.029,13.2996,4.60019,2470.287,2021-12-31T16:48:11Z
2021-12-31T14:49:44Z,42.805,6.029,13.3000,4.60019,2470.287,2021-12-31T16:51:14Z
2021-12-31T14:52:47Z,42.805,6.029,13.2994,4.60019,2470.287,2021-12-31T16:54:17Z
2021-12-31T14:55:50Z,42.805,6.029,13.2997,4.60019,2470.343,2021-12-31T16:57:20Z
2021-12-31T14:58:53Z,42.805,6.029,13.2998,4.60022,2470.297,2021-12-31T17:00:23Z
2021-12-31T15:01:56Z,42.805,6.029,13.2997,4.60019,2470.297,2021-12-31T17:03:26Z